Simultaneous Nadir Overpasses (SNOs) Predictions

Prediction of SNOs between METOP-C and LANDSAT-8 Satellite Orbit:

Table of predicted SNOs for the next 14.0 days since TLE Epoch: 8/22/2020
Index Date (METOP-C) Time (METOP-C) Lat,Lon (METOP-C) SZA (METOP-C ) Date (LANDSAT-8) Time (LANDSAT-8) Lat,Lon (LANDSAT-8) SZA (LANDSAT-8 ) Distance(km) Time Diff (sec)
1 08/24/2020 21:55:59 -81.14, 71.17 107.50 08/24/2020 21:56:44 -81.14, 71.20 107.47 0.71 45
2 08/24/2020 22:46:38 81.17,-120.63 72.63 08/24/2020 22:46:09 81.17,-120.75 72.61 2.03 29
3 08/27/2020 17:30:20 -81.14, 137.57 106.50 08/27/2020 17:31:01 -81.14, 137.61 106.47 0.79 41
4 08/27/2020 18:20:59 81.17, -54.28 73.62 08/27/2020 18:20:26 81.17, -54.36 73.60 1.42 33
5 08/30/2020 13:04:41 -81.14,-156.04 105.48 08/30/2020 13:05:18 -81.14,-155.98 105.46 1.13 37
6 08/30/2020 13:55:20 81.16, 12.05 74.63 08/30/2020 13:54:43 81.16, 12.02 74.61 0.51 37
7 09/02/2020 08:39:01 -81.14, -89.66 104.45 09/02/2020 08:39:34 -81.14, -89.56 104.42 1.71 33
8 09/02/2020 09:29:40 81.16, 78.37 75.66 09/02/2020 09:28:59 81.16, 78.41 75.65 0.71 41
